Location: Chassignet
(46.2830°N, 3.2241°E)
Time: 12:38:25
(UTC+00:00)

Daily predictions for brighter satellites

Satellite Brightness Start Highest point End
(mag) Time Altitude Azimuth Time Altitude Azimuth Time Altitude Azimuth
Spot 2 4.4 16:28:08 10° SSE 16:32:51 80° ENE 16:37:53 10° NNW
Nadezhda 1 Rocket 4.2 16:27:55 10° S 16:34:17 83° W 16:40:45 10° N
Meteor 2-12 Rocket 4.5 16:28:29 10° N 16:34:38 67° ENE 16:40:43 10° SSE
Cosmos 2218 Rocket 4.4 16:31:05 10° N 16:36:50 40° ENE 16:42:34 10° SE
Cosmos 2366 rocket 4.4 16:32:02 10° N 16:37:48 39° ENE 16:43:29 10° SE
Cosmos 1867 3.7 16:32:43 10° SW 16:38:09 80° NW 16:43:39 10° NE
ERS-2 4.1 16:37:14 10° ENE 16:38:56 13° E 16:40:37 10° ESE
Envisat 3.0 16:37:13 10° SSE 16:42:18 80° ENE 16:47:24 10° NNW
Lacrosse 5 rocket 1.1 16:42:55 10° WSW 16:46:36 72° NW 16:50:12 10° NE
Cosmos 773 Rocket 4.3 16:43:06 10° S 16:48:08 48° ESE 16:53:15 10° NNE
YAOGAN 6 2.5 16:47:45 10° SSE 16:51:22 79° ENE 16:54:58 10° N
Cosmos 1606 2.9 16:49:51 10° SSW 16:53:44 77° W 16:57:38 10° N
Cosmos 2297 3.8 16:48:29 10° NNW 16:54:13 86° WSW 16:59:56 10° SSE
OE (NEXTSAT) 4.3 16:51:49 10° W 16:55:17 88° S 16:58:30 12° E
AQUARIUS 4.2 16:52:09 10° SSE 16:56:33 56° ENE 17:00:58 10° N
FengYun 1-2 T 4.4 16:51:20 10° SE 16:56:36 48° ENE 17:01:52 10° N
SL-16 R/B 2.2 16:52:24 10° SSW 16:58:04 86° ESE 17:03:46 10° NNE
CZ-4B R/B 2.6 16:56:26 12° NE 16:58:35 21° E 17:01:05 10° SSE
Landsat 5 3.7 16:55:19 10° NNE 16:59:48 87° WNW 17:04:19 10° SSW
BREEZE-M DEB (TANK) 1.8 16:59:25 10° WSW 17:02:09 59° SSE 17:03:26 18° E
USA 215 4.4 16:59:20 11° ENE 17:04:07 24° SE 17:09:14 10° S
SMAP 3.0 17:00:54 10° SSE 17:05:32 79° ENE 17:10:14 10° N
Cosmos 1500 4.5 17:03:04 10° NNE 17:05:54 19° ENE 17:08:44 10° ESE
Sich 1 4.0 17:03:48 10° NNW 17:08:03 52° W 17:12:15 10° S
YAOGAN 1 4.1 17:09:19 16° ENE 17:09:34 16° ENE 17:12:10 10° NNE
Cosmos 1656 Rocket 4.4 17:05:06 10° N 17:10:07 31° NE 17:15:02 10° ESE
CZ-4C R/B 3.8 17:07:15 10° N 17:10:49 55° WNW 17:14:20 10° SSW
Cosmos 1151 Rocket 2.9 17:07:54 10° S 17:12:09 73° E 17:16:25 10° NNE
Cosmos 1470 Rocket 3.6 17:08:46 10° N 17:13:00 52° ENE 17:17:13 10° SSE
CSL-04 DEB 4.4 17:11:19 10° NNE 17:15:29 72° ESE 17:19:44 10° S
Cosmos 864 Rocket 4.4 17:12:33 10° N 17:18:54 75° E 17:25:08 10° SSE
Cosmos 2263 4.5 17:13:44 10° NNW 17:19:07 44° NE 17:24:27 10° SE
Cosmos 1515 Rocket 3.8 17:16:02 10° SSE 17:20:12 45° E 17:24:25 10° NNE
CZ-2C R/B 3.8 17:17:24 10° ESE 17:21:28 26° ENE 17:25:26 10° N
SL-8 Rocket 4.1 17:15:50 10° N 17:22:07 83° W 17:28:24 10° S
Cosmos 482 Debris 3.7 17:20:54 10° WNW 17:22:37 39° SSW 17:23:46 18° SSE
TIMED 4.4 17:19:16 10° SSW 17:23:37 73° ESE 17:27:39 12° NNE
Cosmos 1238 Rocket 4.1 17:21:47 10° NNE 17:25:08 24° ENE 17:28:59 10° SE
TELKOM 3 3.9 17:23:18 10° WNW 17:25:52 34° N 17:26:18 31° NNE
COSMO-SKYMED 1 3.2 17:23:06 15° NE 17:26:17 35° E 17:30:15 10° SSE
Cosmos 1689 Rocket 4.5 17:29:01 11° SE 17:29:01 11° SE 17:29:17 10° SE
X-37B 1.1 17:25:04 10° WSW 17:28:08 49° SSE 17:29:28 28° ESE
USA 281 3.7 17:22:46 10° ESE 17:28:39 37° NE 17:34:34 10° NNW
Nadezhda 3 Rocket 4.5 17:23:54 10° SSE 17:29:40 38° E 17:35:27 10° NNE
SAR-Lupe-4 4.4 17:29:14 27° ENE 17:29:51 29° E 17:33:01 10° SSE
USA 81 4.2 17:26:24 10° N 17:31:42 79° W 17:36:58 10° S
Cosmos 2228 Rocket 3.8 17:28:53 10° SSE 17:32:51 31° E 17:34:29 24° NE
Helios 1A Rocket 3.9 17:33:25 25° NE 17:33:25 25° NE 17:36:17 10° N
CORIOLIS 4.4 17:27:31 10° S 17:32:55 73° WSW 17:38:23 10° NNW
Meteor 1-4 Rocket 2.4 17:30:31 10° S 17:34:06 89° ESE 17:37:26 12° N
H-2A R/B 2.9 17:35:18 24° E 17:36:22 26° ENE 17:40:32 10° N
Cosmos 1812 3.5 17:33:18 10° SSE 17:36:35 29° E 17:36:35 29° E
Cosmos 1821 Rocket 4.2 17:31:44 10° N 17:37:47 48° ENE 17:43:52 10° SSE
USA 267 3.7 17:34:11 21° ENE 17:38:08 43° NNE 17:44:14 10° NW
Cosmos 1939 Rocket 2.7 17:34:56 10° SSE 17:38:45 61° ENE 17:42:39 10° N
Cosmos 1328 Rocket 3.9 17:35:50 10° SSW 17:40:06 65° W 17:44:28 10° N
Meteor 1-11 Rocket 4.4 17:35:33 10° N 17:40:43 33° ENE 17:45:58 10° SE
CZ-4 R/B 2.1 17:41:26 31° ENE 17:41:26 31° ENE 17:44:42 10° N
BREEZE-M DEB (TANK) 3.8 17:39:34 10° SSW 17:42:19 19° SSE 17:42:53 18° SE
Cosmos 44 Rocket 3.7 17:37:38 10° NNW 17:42:37 45° NE 17:45:09 26° ESE
Cosmos 1933 Rocket 3.5 17:38:37 10° N 17:43:06 74° E 17:47:32 10° SSE
IRS-1C Rocket 4.0 17:39:56 10° SSE 17:45:07 63° ENE 17:50:21 10° N
Cosmos 1602 4.1 17:41:45 10° NNW 17:45:39 64° W 17:49:28 10° S
SAR-Lupe-1 4.3 17:46:35 43° E 17:46:53 44° E 17:50:19 10° S
NOAA 11 4.5 17:43:33 10° S 17:48:57 69° WSW 17:54:24 10° NNW
Lacrosse 4 Rocket 3.5 17:46:26 10° SSE 17:46:59 12° SE 17:46:59 12° SE
Cosmos 1680 Rocket 4.1 17:44:53 10° SSE 17:49:34 33° E 17:50:18 32° E
Cosmos 2237 Rocket 4.3 17:45:48 10° W 17:49:48 19° NW 17:53:50 10° N
CZ-4B R/B 4.4 17:45:16 10° S 17:50:17 43° W 17:55:21 10° NNW
SL-24 R/B 3.8 17:49:33 41° NE 17:50:27 52° E 17:54:01 10° S
Cosmos 1603 3.6 17:48:05 10° SSW 17:53:39 66° ESE 17:56:56 25° NE
CZ-2D R/B 3.1 17:51:49 10° SSE 17:55:36 67° ENE 17:59:26 10° N
Cosmos 1943 3.2 17:51:28 10° S 17:57:01 63° ESE 17:59:58 28° NE
H-2A R/B 3.9 17:54:17 10° N 17:57:58 29° WNW 18:01:41 10° SW
Cosmos 2369 Rocket 2.4 17:53:16 10° NNW 17:58:57 73° WSW 18:04:34 10° SSE
Cosmos 1538 Rocket 4.2 17:53:49 10° SSW 17:59:10 73° WNW 18:03:44 15° NNE
Cosmos 1943 Rocket 3.3 17:54:50 10° NW 18:00:05 44° WSW 18:05:21 10° S
Meteor 1-5 Rocket 4.2 17:55:24 10° N 18:01:20 72° ENE 18:07:03 10° SSE
Okean O Rocket 3.5 17:58:38 10° SSW 18:02:30 31° W 18:06:26 10° NNW
Cosmos 1782 3.7 17:58:42 10° SSW 18:02:33 48° WNW 18:06:26 10° N
Cosmos 1461 4.4 17:59:53 10° S 18:02:44 26° SE 18:02:44 26° SE
Okean-O 2.6 17:59:37 10° SSE 18:03:58 59° ENE 18:08:20 10° N
Cosmos 1371 Rocket 4.5 17:59:16 10° N 18:03:40 37° NE 18:03:40 37° NE
ISS -2.7 18:03:22 10° WNW 18:05:55 35° NNW 18:05:55 35° NNW
ARGOS 4.2 18:08:32 28° NNE 18:08:32 28° NNE 18:11:38 10° N
CENTAUR R/B 3.0 18:01:53 10° S 18:07:08 37° ESE 18:07:44 36° ESE
Cosmos 2112 Rocket 4.4 18:05:08 10° S 18:09:53 42° ESE 18:09:53 42° ESE
Cosmos 2056 Rocket 4.2 18:05:28 10° N 18:09:29 36° NE 18:09:29 36° NE
ERS-2 2.9 18:10:45 23° N 18:12:45 50° WNW 18:16:18 10° SSW
SKYMED 2 3.7 18:11:44 22° N 18:14:28 74° WNW 18:18:47 10° SSW
NOSS 3-2 (C) 3.8 18:10:04 10° S 18:15:09 39° ESE 18:15:09 39° ESE
Cosmos 1869 Rocket 3.4 18:13:21 10° N 18:22:43 - SSE 18:17:48 71° ENE
BREEZE-M DEB (TANK) 3.3 18:11:41 10° SW 18:19:44 58° SSE 18:19:59 57° SE
Meteor 1-27 Rocket 4.1 18:16:01 10° SSE 18:20:11 42° SE 18:20:11 42° SE
Meteor 1-10 Rocket 4.1 18:20:04 10° S 18:25:42 84° E 18:28:50 28° NNE
Lacrosse 5 rocket 3.1 18:23:30 10° WNW 18:25:53 19° NNW 18:25:53 19° NNW
Cosmos 371 Rocket 4.0 18:24:41 10° NNW 18:28:00 40° N 18:28:00 40° N
CZ-4B R/B 3.7 18:29:34 17° NW 18:30:45 20° WNW 18:33:09 10° WSW
NOSS 3-2 (A) 3.2 18:34:42 10° SW 18:40:22 90° WNW 18:41:27 63° NE
SL-16 R/B 4.4 18:38:51 10° W 18:42:57 20° NW 18:46:58 10° N
YAOGAN 1 3.5 18:46:28 41° NW 18:46:28 41° NW 18:49:30 10° NNW
Cosmos 1535 Rocket 4.3 18:39:11 10° N 18:45:19 82° E 18:51:27 10° S
USA 215 3.1 18:46:42 65° ENE 18:47:46 81° SE 18:54:20 10° SW
MOS 1 Rocket 3.8 18:52:43 48° N 18:54:08 68° WNW 18:59:28 10° SSW
USA 238 DEB 3.6 18:53:09 10° SW 18:59:45 80° NW 19:00:35 69° NNE
USA 238 3.6 18:53:14 10° SW 18:59:50 81° NW 19:00:39 70° NNE
CZ-2C R/B 4.1 18:56:30 10° SSW 19:01:12 41° W 19:05:45 10° NNW
X-37B 4.1 19:01:28 10° W 19:01:44 12° W 19:01:44 12° W
Cosmos 1934 Rocket 4.3 19:00:56 10° NNW 19:07:15 66° W 19:13:27 10° S
USA 281 3.8 19:06:34 10° S 19:12:57 53° WSW 19:19:23 10° NNW
H-2A R/B 2.9 19:15:55 47° W 19:15:55 47° W 19:20:31 10° NNW
CZ-4 R/B 3.9 19:17:28 20° WNW 19:17:28 20° WNW 19:19:25 10° NW
USA 267 3.3 19:21:32 73° NW 19:21:32 73° NW 19:27:22 10° NW
Lacrosse 4 Rocket 4.4 19:23:20 10° SW 19:23:21 10° SW 19:23:21 10° SW
CENTAUR R/B 3.9 19:51:35 10° WSW 19:54:58 34° W 19:54:58 34° W
